User: anonymous   Login
Location: Unspecified
(0.0000°N, 0.0000°E)
Time: 09:02:13
(UTC+00:00)
Language:

NOAA 6 - Orbit

View from above orbital plane
View from above orbital plane
View from above satellite
View from above satellite

Ground track
Ground track

The orbit data is extracted from the following two-line orbital elements,

1 11416U 79057A   17115.90204378 +.00000070 +00000-0 +41352-4 0  9995
2 11416 098.5762 104.2717 0011263 047.6843 312.5294 14.33412741972373
Epoch (UTC): 25 April 2017 21:38:56
Eccentricity: 0.0011263
inclination: 98.5762°
perigee height: 772 km
apogee height: 788 km
right ascension of ascending node: 104.2717°
argument of perigee: 47.6843°
revolutions per day: 14.33412741
mean anomaly at epoch: 312.5294°
orbit number at epoch: 97237

The dashed part of the orbit path shows where the satellite is in the earth's shadow,  

DLR